Regional Weather Roundup
Issued by NWS Green Bay, WI

Home | Current Version | Previous Version | Text Only | Print | Product List | Glossary On
Versions: 1 2 3 4 5 6 7 8 9 10 11 12 13 14 15 16 17 18 19 20 21 22 23 24 25 26 27 28 29 30 31 32 33 34 35 36 37 38 39 40 41 42 43 44 45 46 47 48 49 50
000
ASUS43 KGRB 270311
RWRGRB

NORTH-CENTRAL AND NORTHEAST WISCONSIN REGIONAL WEATHER ROUNDUP
NATIONAL WEATHER SERVICE GREEN BAY WI
1000 PM CDT MON JUN 26 2017

WIZ005-009-010>012-018-019-270400-
NORTH CENTRAL WISCONSIN

CITY           SKY/WX    TMP DP  RH WIND       PRES   REMARKS
IRONWOOD       CLEAR     52  48  86 SW5       30.04S
MANITOWISH WTR CLEAR     48  48 100 W5        30.05R
ARBOR VITAE    CLEAR     52  47  83 CALM      30.05R
EAGLE RIVER    CLEAR     48  46  95 CALM      30.04R
LAND O LAKES   CLEAR     49  47  93 CALM      30.05R
RHINELANDER    CLEAR     48  48 100 W6        30.05R
PHILLIPS       PTCLDY    50  50  99 CALM      30.06R
ANTIGO         PTCLDY    53  47  79 NW8       30.05S
TOMAHAWK       NOT AVBL
MERRILL        CLEAR     51  46  84 W3        30.07R
$$

WIZ013-073-270400-
NORTHEAST WISCONSIN

CITY           SKY/WX    TMP DP  RH WIND       PRES   REMARKS
IRON MOUNTAIN  CLEAR     48  43  82 CALM      30.00R
MARINETTE      CLEAR     53  50  89 W3        30.03R
OCONTO         CLEAR     49  49  99 CALM      30.03R
$$

WIZ017-030-035>037-045-270400-
CENTRAL WISCONSIN

CITY           SKY/WX    TMP DP  RH WIND       PRES   REMARKS
MEDFORD        CLEAR     51  47  84 W3        30.07S
WAUSAU         CLEAR     54  47  77 CALM      30.04S
MOSINEE        CLEAR     54  46  76 W5        30.07R
MARSHFIELD     PTCLDY    53  45  74 W5        30.07R
WISC RAPIDS    CLEAR     52  47  83 CALM      30.08R
STEVENS POINT  CLEAR     51  47  84 W3        30.07R
WAUPACA        CLEAR     55  51  83 CALM      30.06R
SHAWANO        PTCLDY    56  50  80 CALM      30.04R
CLINTONVILLE   PTCLDY    50  46  87 CALM      30.04S
WAUTOMA        CLEAR     51  48  89 CALM      30.08R
$$

WIZ038-039-048-051-270400-
FOX VALLEY

CITY           SKY/WX    TMP DP  RH WIND       PRES   REMARKS
NWS GREEN BAY  CLEAR     54  53  97 SW6       30.04R
APPLETON       PTCLDY    54  46  76 VRB5      30.04S
OSHKOSH        CLEAR     51  48  89 CALM      30.06R
FOND DU LAC    CLEAR     53  47  79 W3        30.07R
$$

WIZ022-050-052-270400-
EAST CENTRAL WISCONSIN

CITY           SKY/WX    TMP DP  RH WIND       PRES   REMARKS
EPHRAIM        FAIR      55  49  81 W5        30.01R
WASHINGTON ISL MOCLDY    49  49  98 CALM      30.00R
STURGEON BAY     N/A     53  51  93 CALM        N/A
MANITOWOC      CLEAR     54  50  86 W5        30.05R
SHEBOYGAN      CLEAR     53  51  93 W3        30.06R
$$

LMZ563-521-522-541>543-270400-
LAKESHORE

STATION/POSITION TIME  TEMP    WIND        PRES    VSBY  WAVE
                       AIR SEA DIR/SP/G                  HT/PER
                 (UTC) (F)     (DEG/KT/KT) (MB)    (MI)  (FT/S)
SHEBOYGAN LKSHOR 0300   56     280/  7/  8 1017.7R
KEWAUNEE LKSHORE 0248   54     300/  4/  5 1016.5R
NORTHPORT PIER   0240   55     270/  3/  4 1015.9R
N MID LAKE BUOY  0250   57 56  260/  2/  4 1016.4R         1/ 3
S GREEN BAY BUOY 0300   60     260/  8/ 10 1016.5
CHAMBERS ISLAND  0240   53     240/  2/  4 1015.9R
MENOMINEE LKSHOR 0248          230/  5/  6 1015.7R
$$




USA.gov is the U.S. government's official web portal to all federal, state and local government web resources and services.